Tracking 28096 objects as of 29-Sep-2023
HD Live streaming from Space Station
objects crossing your sky now

STARLINK-30247

Track STARLINK-30247 now!
10-day predictions
STARLINK-30247 is classified as:


NORAD ID: 57644
Int'l Code: 2023-122N
Perigee: 565.1 km
Apogee: 567.2 km
Inclination: 43.0 °
Period: 95.8 minutes
Semi major axis: 6937 km
RCS: Unknown
Launch date: August 17, 2023
Source: United States (US)
Launch site: AIR FORCE EASTERN TEST RANGE (AFETR)
Your satellite tracking list
Your tracking list is empty




NASA's NSSDC Master Catalog

Two Line Element Set (TLE):
1 57644U 23122N   23271.91668981  .00034427  00000-0  25501-2 0  9994
2 57644  42.9988 265.6082 0001485 266.2334 210.9169 15.02550815  6041
Source of the keplerian elements: AFSPC